Time,TemperatureF,DewpointF,PressureIn,WindDirection,WindDirectionDegrees,WindSpeedMPH,WindSpeedGustMPH,Humidity,HourlyPrecipIn,Conditions,Clouds,dailyrainin,SolarRadiationWatts/m^2,SoftwareType,DateUTC
2013-02-27 00:02:00,29.0,28.0,-100.00,WNW,287,6.0,12.0,95,0.00,,,0.50,0.000000,,2013-02-27 05:02:00,
2013-02-27 00:32:00,27.0,26.0,-100.00,East,97,6.0,14.0,96,0.00,,,0.50,0.000000,,2013-02-27 05:32:00,
2013-02-27 00:42:00,27.0,26.0,-100.00,East,97,6.0,14.0,96,0.00,,,0.50,0.000000,,2013-02-27 05:42:00,
2013-02-27 00:52:00,27.0,26.0,-100.00,East,97,6.0,14.0,96,0.00,,,0.50,0.000000,,2013-02-27 05:52:00,
2013-02-27 01:02:00,27.0,26.0,-100.00,East,97,6.0,14.0,96,0.00,,,0.50,0.000000,,2013-02-27 06:02:00,
2013-02-27 01:22:00,27.0,27.0,-100.00,WNW,293,4.0,12.0,98,0.00,,,0.50,0.000000,,2013-02-27 06:22:00,
2013-02-27 01:33:00,27.0,27.0,-100.00,WNW,293,4.0,12.0,98,0.00,,,0.50,0.000000,,2013-02-27 06:33:00,
2013-02-27 01:42:00,27.0,27.0,-100.00,WNW,293,4.0,12.0,98,0.00,,,0.50,0.000000,,2013-02-27 06:42:00,
2013-02-27 01:52:00,27.0,27.0,-100.00,WNW,293,4.0,12.0,98,0.00,,,0.50,0.000000,,2013-02-27 06:52:00,
2013-02-27 02:01:00,27.0,27.0,-100.00,WNW,293,4.0,12.0,98,0.00,,,0.50,0.000000,,2013-02-27 07:01:00,
2013-02-27 02:22:00,26.0,25.0,-100.00,NNW,346,3.0,11.0,97,0.00,,,0.50,0.000000,,2013-02-27 07:22:00,
2013-02-27 02:32:00,26.0,25.0,-100.00,NNW,346,3.0,11.0,97,0.00,,,0.50,0.000000,,2013-02-27 07:32:00,
2013-02-27 02:42:00,26.0,25.0,-100.00,NNW,346,3.0,11.0,97,0.00,,,0.50,0.000000,,2013-02-27 07:42:00,
2013-02-27 02:52:00,26.0,25.0,-100.00,NNW,346,3.0,11.0,97,0.00,,,0.50,0.000000,,2013-02-27 07:52:00,
2013-02-27 03:01:00,26.0,25.0,-100.00,NNW,346,3.0,11.0,97,0.00,,,0.50,0.000000,,2013-02-27 08:01:00,
2013-02-27 03:22:00,26.0,25.0,-100.00,NNW,330,4.0,18.0,97,0.00,,,0.50,0.000000,,2013-02-27 08:22:00,
2013-02-27 03:32:00,26.0,25.0,-100.00,NNW,330,4.0,18.0,97,0.00,,,0.50,0.000000,,2013-02-27 08:32:00,
2013-02-27 03:42:00,26.0,25.0,-100.00,NNW,330,4.0,18.0,97,0.00,,,0.50,0.000000,,2013-02-27 08:42:00,
2013-02-27 03:53:00,26.0,25.0,-100.00,NNW,330,4.0,18.0,97,0.00,,,0.50,0.000000,,2013-02-27 08:53:00,
2013-02-27 04:02:00,26.0,25.0,-100.00,NNW,330,4.0,18.0,97,0.00,,,0.50,0.000000,,2013-02-27 09:02:00,
2013-02-27 04:32:00,25.0,25.0,-100.00,North,353,4.0,11.0,98,0.00,,,0.48,0.000000,,2013-02-27 09:32:00,
2013-02-27 04:42:00,25.0,25.0,-100.00,North,353,4.0,11.0,98,0.00,,,0.48,0.000000,,2013-02-27 09:42:00,
2013-02-27 04:52:00,25.0,25.0,-100.00,North,353,4.0,11.0,98,0.00,,,0.48,0.000000,,2013-02-27 09:52:00,
2013-02-27 05:01:00,25.0,25.0,-100.00,North,353,4.0,11.0,98,0.00,,,0.48,0.000000,,2013-02-27 10:01:00,
2013-02-27 05:32:00,24.0,23.0,-100.00,North,353,5.0,10.0,97,0.00,,,0.42,0.000000,,2013-02-27 10:32:00,
2013-02-27 05:42:00,24.0,23.0,-100.00,North,353,5.0,10.0,97,0.00,,,0.42,0.000000,,2013-02-27 10:42:00,
2013-02-27 05:53:00,24.0,23.0,-100.00,North,353,5.0,10.0,97,0.00,,,0.42,0.000000,,2013-02-27 10:53:00,
2013-02-27 06:02:00,24.0,23.0,-100.00,North,353,5.0,10.0,97,0.00,,,0.42,0.000000,,2013-02-27 11:02:00,
2013-02-27 06:32:00,24.0,24.0,-100.00,NNW,334,5.0,14.0,98,0.00,,,0.38,0.000000,,2013-02-27 11:32:00,
2013-02-27 06:42:00,24.0,24.0,-100.00,NNW,334,5.0,14.0,98,0.00,,,0.38,0.000000,,2013-02-27 11:42:00,
2013-02-27 06:52:00,24.0,24.0,-100.00,NNW,334,5.0,14.0,98,0.00,,,0.38,0.000000,,2013-02-27 11:52:00,
2013-02-27 07:02:00,24.0,24.0,-100.00,NNW,334,5.0,14.0,98,0.00,,,0.38,0.000000,,2013-02-27 12:02:00,
2013-02-27 07:33:00,24.0,23.0,-100.00,North,353,4.0,13.0,97,0.00,,,-99.99,0.000000,,2013-02-27 12:33:00,
2013-02-27 07:42:00,24.0,23.0,-100.00,North,353,4.0,13.0,97,0.00,,,-99.99,0.000000,,2013-02-27 12:42:00,
2013-02-27 07:53:00,24.0,23.0,-100.00,North,353,4.0,13.0,97,0.00,,,-99.99,0.000000,,2013-02-27 12:53:00,
2013-02-27 08:02:00,24.0,23.0,-100.00,North,353,4.0,13.0,97,0.00,,,-99.99,0.000000,,2013-02-27 13:02:00,
2013-02-27 08:32:00,23.0,22.0,-100.00,NW,319,3.0,14.0,97,0.00,,,-99.99,13.000000,,2013-02-27 13:32:00,
2013-02-27 08:42:00,23.0,22.0,-100.00,NW,319,3.0,14.0,97,0.00,,,-99.99,13.000000,,2013-02-27 13:42:00,
2013-02-27 08:52:00,23.0,22.0,-100.00,NW,319,3.0,14.0,97,0.00,,,-99.99,13.000000,,2013-02-27 13:52:00,
2013-02-27 09:02:00,23.0,22.0,-100.00,NW,319,3.0,14.0,97,0.00,,,-99.99,13.000000,,2013-02-27 14:02:00,
2013-02-27 09:22:00,29.0,27.0,-100.00,NNW,335,5.0,11.0,91,0.00,,,0.22,203.000000,,2013-02-27 14:22:00,
2013-02-27 09:32:00,29.0,27.0,-100.00,NNW,335,5.0,11.0,91,0.00,,,0.22,203.000000,,2013-02-27 14:32:00,
2013-02-27 09:42:00,29.0,27.0,-100.00,NNW,335,5.0,11.0,91,0.00,,,0.22,203.000000,,2013-02-27 14:42:00,
2013-02-27 09:53:00,29.0,27.0,-100.00,NNW,335,5.0,11.0,91,0.00,,,0.22,203.000000,,2013-02-27 14:53:00,
2013-02-27 10:02:00,29.0,27.0,-100.00,NNW,335,5.0,11.0,91,0.00,,,0.22,203.000000,,2013-02-27 15:02:00,